KD7MPG-3 Weather Reports


Display with metric or nautical units.
time (UTC)temp
F
wind
direction
speed
MPH
gust
MPH
rain 1hr
in
rain 24hr
in
rain mn
in
humidity
%
barometer
mb
20260508102744 50 253 1.0 4.0 0.00 0.00 0.00 85 1027.1
20260508102242 50 205 1.0 4.0 0.00 0.00 0.00 84 1027.2
20260508101740 50 227 2.0 5.0 0.00 0.00 0.00 84 1027.1
20260508101238 50 247 2.0 5.0 0.00 0.00 0.00 84 1027.2
20260508100739 50 245 1.0 4.0 0.00 0.00 0.00 85 1027.0
20260508100232 50 238 1.0 4.0 0.00 0.00 0.00 85 1026.9
20260508095733 50 269 2.0 7.0 0.00 0.00 0.00 85 1026.8
20260508095232 50 264 2.0 7.0 0.00 0.00 0.00 85 1026.7
20260508094732 50 229 1.0 6.0 0.00 0.00 0.00 86 1026.7
20260508094232 50 208 1.0 3.0 0.00 0.00 0.00 86 1026.6
20260508093731 49 236 1.0 2.0 0.00 0.00 0.00 87 1026.4
20260508093226 49 236 0.0 2.0 0.00 0.00 0.00 87 1026.3
20260508092726 49 251 0.0 2.0 0.00 0.00 0.00 87 1026.3
20260508092223 49 227 0.0 0.0 0.00 0.00 0.00 87 1026.2
20260508091720 49 227 0.0 0.0 0.00 0.00 0.00 87 1026.2
20260508091220 49 227 0.0 2.0 0.00 0.00 0.00 87 1026.3
20260508090719 49 227 0.0 2.0 0.00 0.00 0.00 87 1026.3
20260508090216 49 227 0.0 1.0 0.00 0.00 0.00 87 1026.4
20260508085717 49 234 0.0 0.0 0.00 0.00 0.00 87 1026.3
20260508085216 49 234 0.0 1.0 0.00 0.00 0.00 87 1026.3
20260508084714 49 235 0.0 1.0 0.00 0.00 0.00 87 1026.2
20260508084215 49 235 0.0 0.0 0.00 0.00 0.00 87 1026.4
20260508083712 49 234 0.0 1.0 0.00 0.00 0.00 87 1026.4
20260508083210 49 235 0.0 1.0 0.00 0.00 0.00 87 1026.2
20260508082707 49 234 0.0 0.0 0.00 0.00 0.00 86 1026.2
20260508082209 49 235 0.0 0.0 0.00 0.00 0.00 86 1026.1
20260508081708 49 235 0.0 0.0 0.00 0.00 0.00 85 1026.0
20260508081209 50 234 0.0 0.0 0.00 0.00 0.00 86 1026.0
20260508080705 50 234 0.0 0.0 0.00 0.00 0.00 85 1026.0
20260508080204 50 234 0.0 0.0 0.00 0.00 0.00 85 1026.0
20260508075702 50 234 0.0 0.0 0.00 0.00 0.00 85 1026.0
20260508075202 50 236 0.0 0.0 0.00 0.00 0.00 85 1025.9
20260508074701 51 235 0.0 0.0 0.00 0.00 0.00 85 1026.0
20260508074203 51 235 0.0 0.0 0.00 0.00 0.00 85 1025.9
20260508073659 51 235 0.0 1.0 0.00 0.00 0.00 85 1025.9
20260508073157 51 235 0.0 1.0 0.00 0.00 0.00 84 1025.8
20260508072659 51 234 0.0 1.0 0.00 0.00 0.00 84 1025.7
20260508072158 51 235 0.0 0.0 0.00 0.00 0.00 83 1025.7
20260508071656 52 235 0.0 0.0 0.00 0.00 0.00 83 1025.7
20260508071157 52 234 0.0 0.0 0.00 0.00 0.00 83 1025.6
20260508070651 52 234 0.0 0.0 0.00 0.00 0.00 83 1025.6
20260508070149 52 235 0.0 0.0 0.00 0.00 0.00 82 1025.6
20260508065650 52 235 0.0 0.0 0.00 0.00 0.00 81 1025.7
20260508065151 53 234 0.0 0.0 0.00 0.00 0.00 81 1025.7
20260508064650 53 234 0.0 0.0 0.00 0.00 0.00 80 1025.6
20260508064149 53 235 0.0 0.0 0.00 0.00 0.00 80 1025.5
20260508063646 53 236 0.0 0.0 0.00 0.00 0.00 80 1025.5
20260508063146 54 235 0.0 0.0 0.00 0.00 0.00 80 1025.6
20260508062646 54 234 0.0 0.0 0.00 0.00 0.00 79 1025.5
20260508062147 54 236 0.0 0.0 0.00 0.00 0.00 78 1025.5
20260508061644 54 234 0.0 0.0 0.00 0.00 0.00 78 1025.4
20260508061144 55 235 0.0 0.0 0.00 0.00 0.00 78 1025.4
20260508060638 55 234 0.0 0.0 0.00 0.00 0.00 77 1025.5
20260508060137 55 234 0.0 0.0 0.00 0.00 0.00 77 1025.4
20260508055638 55 235 0.0 0.0 0.00 0.00 0.00 77 1025.5
20260508055138 55 235 0.0 0.0 0.00 0.00 0.00 76 1025.5
20260508054638 56 235 0.0 0.0 0.00 0.00 0.00 75 1025.4
20260508054138 56 235 0.0 0.0 0.00 0.00 0.00 74 1025.4
20260508053631 56 235 0.0 0.0 0.00 0.00 0.00 74 1025.4
20260508053132 57 234 0.0 0.0 0.00 0.00 0.00 73 1025.4
20260508052632 57 235 0.0 0.0 0.00 0.00 0.00 73 1025.3
20260508052132 58 235 0.0 0.0 0.00 0.00 0.00 72 1025.3
20260508051632 58 234 0.0 0.0 0.00 0.00 0.00 72 1025.4
20260508051133 58 235 0.0 0.0 0.00 0.00 0.00 71 1025.4
20260508050627 58 234 0.0 1.0 0.00 0.00 0.00 71 1025.5
20260508050126 59 234 0.0 1.0 0.00 0.00 0.00 70 1025.3
20260508045626 59 234 0.0 1.0 0.00 0.00 0.00 70 1025.3
20260508045125 59 235 0.0 1.0 0.00 0.00 0.00 69 1025.3
20260508044626 60 234 0.0 2.0 0.00 0.00 0.00 69 1025.3
20260508043626 60 233 0.0 3.0 0.00 0.00 0.00 69 1025.3
20260508043122 60 234 0.0 3.0 0.00 0.00 0.00 68 1025.2
20260508042623 61 234 1.0 3.0 0.00 0.00 0.00 67 1025.2
20260508042122 61 234 1.0 3.0 0.00 0.00 0.00 67 1025.1
20260508041620 61 289 1.0 3.0 0.00 0.00 0.00 66 1025.0
20260508041121 62 296 1.0 4.0 0.00 0.00 0.00 66 1025.0
20260508040616 62 292 2.0 4.0 0.00 0.00 0.00 65 1025.0
20260508040117 62 275 2.0 4.0 0.00 0.00 0.00 65 1025.0
20260508035614 62 276 2.0 4.0 0.00 0.00 0.00 65 1024.9
20260508035114 63 275 2.0 4.0 0.00 0.00 0.00 65 1024.9
20260508034613 63 329 2.0 4.0 0.00 0.00 0.00 65 1025.0
20260508034115 63 329 2.0 4.0 0.00 0.00 0.00 65 1024.8
20260508033608 64 317 2.0 7.0 0.00 0.00 0.00 65 1024.8
20260508033108 64 258 2.0 7.0 0.00 0.00 0.00 65 1024.7
20260508032607 65 285 2.0 6.0 0.00 0.00 0.00 64 1024.6
20260508032107 65 268 2.0 7.0 0.00 0.00 0.00 64 1024.5
20260508031608 66 276 2.0 8.0 0.00 0.00 0.00 63 1024.4
20260508031109 66 291 2.0 8.0 0.00 0.00 0.00 62 1024.4
20260508030606 67 288 3.0 5.0 0.00 0.00 0.00 62 1024.3
20260508030103 68 345 3.0 9.0 0.00 0.00 0.00 61 1024.6
20260508025605 69 284 3.0 9.0 0.00 0.00 0.00 59 1024.5
20260508025103 71 355 2.0 9.0 0.00 0.00 0.00 57 1024.5
20260508024601 72 307 1.0 5.0 0.00 0.00 0.00 48 1024.4
20260508024103 73 109 1.0 3.0 0.00 0.00 0.00 48 1024.3
20260508023556 73 111 1.0 2.0 0.00 0.00 0.00 48 1024.2
20260508023058 73 112 1.0 4.0 0.00 0.00 0.00 48 1024.3
20260508022554 73 102 1.0 4.0 0.00 0.00 0.00 47 1024.3
20260508022054 74 114 2.0 4.0 0.00 0.00 0.00 46 1024.3
20260508021553 74 82 2.0 4.0 0.00 0.00 0.00 46 1024.2
20260508021054 74 87 2.0 6.0 0.00 0.00 0.00 46 1024.1
20260508020549 74 71 2.0 6.0 0.00 0.00 0.00 46 1024.2
20260508020048 75 90 2.0 6.0 0.00 0.00 0.00 45 1024.1
20260508015549 75 102 2.0 6.0 0.00 0.00 0.00 45 1024.1
20260508015047 76 79 2.0 6.0 0.00 0.00 0.00 44 1024.1
20260508014547 76 62 3.0 8.0 0.00 0.00 0.00 45 1024.4
20260508014049 76 146 3.0 8.0 0.00 0.00 0.00 44 1024.4
20260508013544 76 102 2.0 8.0 0.00 0.00 0.00 43 1024.5
20260508013045 76 132 3.0 8.0 0.00 0.00 0.00 44 1024.7
20260508012545 76 31 2.0 5.0 0.00 0.00 0.00 44 1024.5
20260508012044 76 79 2.0 7.0 0.00 0.00 0.00 45 1024.6
20260508011543 76 96 2.0 7.0 0.00 0.00 0.00 45 1024.7
20260508011045 76 92 3.0 6.0 0.00 0.00 0.00 45 1024.7
20260508010539 76 51 2.0 8.0 0.00 0.00 0.00 45 1024.7
20260508010040 76 86 2.0 8.0 0.00 0.00 0.00 44 1024.8
20260508005545 76 46 1.0 8.0 0.00 0.00 0.00 43 1024.9
20260508005039 76 47 2.0 8.0 0.00 0.00 0.00 44 1024.9
20260508004539 76 134 2.0 9.0 0.00 0.00 0.00 43 1024.9
20260508004040 76 61 2.0 9.0 0.00 0.00 0.00 44 1025.0
20260508003535 76 83 2.0 7.0 0.00 0.00 0.00 45 1024.9
20260508003036 76 105 2.0 9.0 0.00 0.00 0.00 45 1025.0
20260508002537 76 96 3.0 9.0 0.00 0.00 0.00 42 1025.0
20260508002036 76 135 4.0 11.0 0.00 0.00 0.00 43 1024.9
20260508001535 76 75 4.0 11.0 0.00 0.00 0.00 43 1025.0
20260508001037 76 89 3.0 10.0 0.00 0.00 0.00 43 1025.0
20260508000532 76 127 2.0 8.0 0.00 0.00 0.00 43 1025.0
20260508000032 76 175 3.0 8.0 0.00 0.00 0.00 46 1025.2
20260507235533 75 122 2.0 6.0 0.00 0.00 0.00 45 1025.2
20260507235031 75 90 3.0 6.0 0.00 0.00 0.00 45 1025.4
20260507234531 75 39 3.0 7.0 0.00 0.00 0.00 45 1025.4
20260507234032 76 286 2.0 7.0 0.00 0.00 0.00 43 1025.3
20260507233531 76 128 1.0 4.0 0.00 0.00 0.00 43 1025.4
20260507233031 76 67 2.0 4.0 0.00 0.00 0.00 44 1025.5
20260507232532 76 5 2.0 5.0 0.00 0.00 0.00 43 1025.5
20260507232027 76 94 2.0 5.0 0.00 0.00 0.00 43 1025.7
20260507231523 76 34 1.0 4.0 0.00 0.00 0.00 43 1025.6
20260507231023 76 92 1.0 5.0 0.00 0.00 0.00 42 1025.7
20260507230523 75 70 1.0 7.0 0.00 0.00 0.00 44 1025.7
20260507230023 75 80 1.0 7.0 0.00 0.00 0.00 45 1025.7
20260507225523 74 300 1.0 4.0 0.00 0.00 0.00 42 1025.9
20260507225021 74 286 1.0 5.0 0.00 0.00 0.00 42 1025.9
20260507224520 74 0 2.0 6.0 0.00 0.00 0.00 45 1026.0
20260507224018 74 48 2.0 8.0 0.00 0.00 0.00 43 1026.0
20260507223517 73 79 2.0 8.0 0.00 0.00 0.00 48 1026.1
20260507223017 73 46 2.0 5.0 0.00 0.00 0.00 49 1026.2
20260507222518 73 263 2.0 8.0 0.00 0.00 0.00 47 1026.2
20260507222015 73 269 2.0 8.0 0.00 0.00 0.00 49 1026.3
20260507221513 72 107 2.0 8.0 0.00 0.00 0.00 48 1026.3
20260507221014 72 85 2.0 4.0 0.00 0.00 0.00 52 1026.2
20260507220513 72 38 3.0 8.0 0.00 0.00 0.00 51 1026.4
20260507220011 72 0 2.0 8.0 0.00 0.00 0.00 49 1026.7
20260507215512 72 22 2.0 9.0 0.00 0.00 0.00 49 1026.7
20260507215006 71 300 3.0 9.0 0.00 0.00 0.00 49 1026.8
20260507214505 71 32 2.0 8.0 0.00 0.00 0.00 52 1026.8
20260507214005 70 217 2.0 5.0 0.00 0.00 0.00 54 1026.8
20260507213505 70 291 2.0 8.0 0.00 0.00 0.00 52 1026.8
20260507213005 70 281 2.0 8.0 0.00 0.00 0.00 52 1026.9
20260507212506 70 212 2.0 7.0 0.00 0.00 0.00 53 1027.0
20260507212001 69 348 2.0 7.0 0.00 0.00 0.00 57 1027.1
20260507211501 69 247 1.0 6.0 0.00 0.00 0.00 57 1027.1
20260507211002 69 130 1.0 6.0 0.00 0.00 0.00 61 1027.2
20260507210503 69 238 2.0 8.0 0.00 0.00 0.00 60 1027.3
20260507205959 69 273 2.0 8.0 0.00 0.00 0.00 61 1027.2
20260507205500 69 193 2.0 5.0 0.00 0.00 0.00 60 1027.3
20260507204953 69 294 2.0 5.0 0.00 0.00 0.00 61 1027.3
20260507204453 69 315 1.0 5.0 0.00 0.00 0.00 63 1027.5
20260507203953 69 355 2.0 5.0 0.00 0.00 0.00 61 1027.5
20260507203453 69 38 2.0 5.0 0.00 0.00 0.00 63 1027.6
20260507202953 69 24 2.0 5.0 0.00 0.00 0.00 63 1027.7
20260507202454 68 59 2.0 7.0 0.00 0.00 0.00 65 1027.8
20260507201950 67 286 2.0 7.0 0.00 0.00 0.00 65 1027.9
20260507201449 67 336 2.0 7.0 0.00 0.00 0.00 64 1027.9
20260507200947 67 300 1.0 7.0 0.00 0.00 0.00 67 1027.9
20260507200447 67 299 1.0 4.0 0.00 0.00 0.00 63 1027.9
20260507195947 67 325 1.0 4.0 0.00 0.00 0.00 66 1028.1
20260507195448 66 29 1.0 4.0 0.00 0.00 0.00 68 1028.0
20260507194941 66 288 1.0 6.0 0.00 0.00 0.00 66 1028.3
20260507194441 66 281 2.0 6.0 0.00 0.00 0.00 64 1028.2
20260507193940 66 265 2.0 6.0 0.00 0.00 0.00 66 1028.3
20260507193441 66 258 2.0 6.0 0.00 0.00 0.00 68 1028.2
20260507192941 66 285 3.0 10.0 0.00 0.00 0.00 66 1028.4
20260507192442 65 78 3.0 10.0 0.00 0.00 0.00 69 1028.4
20260507191940 65 281 2.0 6.0 0.00 0.00 0.00 68 1028.4
20260507191437 64 281 2.0 6.0 0.00 0.00 0.00 69 1028.4
20260507190935 64 301 3.0 6.0 0.00 0.00 0.00 70 1028.5
20260507190435 63 324 3.0 6.0 0.00 0.00 0.00 71 1028.6
20260507185935 63 301 3.0 6.0 0.00 0.00 0.00 73 1028.7
20260507185436 62 269 3.0 8.0 0.00 0.00 0.00 71 1028.7
20260507184930 63 294 3.0 8.0 0.00 0.00 0.00 69 1028.8
20260507184429 64 17 2.0 8.0 0.00 0.00 0.00 69 1028.8
20260507183929 64 331 2.0 8.0 0.00 0.00 0.00 69 1028.9
20260507183431 64 341 2.0 6.0 0.00 0.00 0.00 71 1028.9
20260507182929 63 245 2.0 7.0 0.00 0.00 0.00 71 1028.9
20260507182428 63 44 2.0 7.0 0.00 0.00 0.00 72 1029.0
20260507181923 63 91 2.0 5.0 0.00 0.00 0.00 72 1028.9
20260507181423 62 59 2.0 5.0 0.00 0.00 0.00 72 1028.8
20260507180922 62 117 2.0 9.0 0.00 0.00 0.00 72 1029.1
20260507180423 62 342 3.0 9.0 0.00 0.00 0.00 71 1028.8
20260507175922 62 74 2.0 7.0 0.00 0.00 0.00 74 1028.8
20260507175424 61 42 2.0 8.0 0.00 0.00 0.00 72 1029.0
20260507174921 61 46 2.0 8.0 0.00 0.00 0.00 73 1029.0
20260507174418 62 36 2.0 8.0 0.00 0.00 0.00 73 1029.0
20260507173916 62 26 3.0 8.0 0.00 0.00 0.00 72 1029.0
20260507173417 62 321 2.0 6.0 0.00 0.00 0.00 71 1028.9
20260507172917 62 292 2.0 8.0 0.00 0.00 0.00 72 1028.9
20260507172417 62 26 2.0 8.0 0.00 0.00 0.00 72 1028.9
20260507171915 62 0 2.0 7.0 0.00 0.00 0.00 73 1029.1
20260507171415 61 9 2.0 7.0 0.00 0.00 0.00 72 1029.0
20260507170916 61 53 2.0 6.0 0.00 0.00 0.00 73 1029.0
20260507170413 61 39 2.0 6.0 0.00 0.00 0.00 73 1029.0
20260507165911 61 34 2.0 7.0 0.00 0.00 0.00 73 1029.1
20260507165410 61 321 2.0 7.0 0.00 0.00 0.00 73 1029.1
20260507164905 60 88 2.0 7.0 0.00 0.00 0.00 75 1029.0
20260507164405 60 61 2.0 6.0 0.00 0.00 0.00 75 1029.0
20260507163904 59 69 2.0 5.0 0.00 0.00 0.00 76 1029.0
20260507163405 59 266 2.0 4.0 0.00 0.00 0.00 76 1029.0
20260507162905 59 35 2.0 4.0 0.00 0.00 0.00 76 1029.0
20260507162405 58 80 1.0 4.0 0.00 0.00 0.00 77 1029.1
20260507161900 58 298 2.0 6.0 0.00 0.00 0.00 78 1029.1
20260507161357 58 24 2.0 6.0 0.00 0.00 0.00 78 1029.0
20260507160855 57 51 2.0 5.0 0.00 0.00 0.00 78 1029.1
20260507160352 57 19 1.0 4.0 0.00 0.00 0.00 78 1029.2
20260507155854 57 47 1.0 5.0 0.00 0.00 0.00 78 1029.2
20260507155350 57 82 2.0 5.0 0.00 0.00 0.00 79 1029.2
20260507154850 57 44 2.0 4.0 0.00 0.00 0.00 78 1029.2
20260507154349 56 11 1.0 4.0 0.00 0.00 0.00 78 1029.2
20260507153942 56 26 1.0 6.0 0.00 0.00 0.00 79 1029.2
20260507153849 56 26 1.0 6.0 0.00 0.00 0.00 79 1029.2
20260507153614 56 342 2.0 6.0 0.00 0.00 0.00 80 1029.2
20260507153349 56 342 2.0 6.0 0.00 0.00 0.00 80 1029.2
20260507152845 56 347 3.0 7.0 0.00 0.00 0.00 80 1029.2
20260507152627 56 9 1.0 4.0 0.00 0.00 0.00 79 1029.3
20260507152344 56 355 2.0 7.0 0.00 0.00 0.00 79 1029.3
20260507151844 56 9 1.0 4.0 0.00 0.00 0.00 79 1029.3
20260507151346 56 40 1.0 4.0 0.00 0.00 0.00 80 1029.3
20260507150844 56 69 1.0 4.0 0.00 0.00 0.00 81 1029.3
20260507150344 55 43 1.0 4.0 0.00 0.00 0.00 82 1029.3
20260507145846 55 311 1.0 4.0 0.00 0.00 0.00 82 1029.3
20260507145340 55 31 1.0 6.0 0.00 0.00 0.00 82 1029.3
20260507144840 55 271 2.0 6.0 0.00 0.00 0.00 82 1029.1
20260507144342 55 340 2.0 5.0 0.00 0.00 0.00 82 1029.2
20260507143840 55 32 2.0 5.0 0.00 0.00 0.00 81 1029.1
20260507143340 55 46 1.0 4.0 0.00 0.00 0.00 81 1029.1
20260507142842 55 40 0.0 4.0 0.00 0.00 0.00 82 1029.0
20260507142336 55 338 1.0 3.0 0.00 0.00 0.00 82 1029.1
20260507141837 55 0 1.0 3.0 0.00 0.00 0.00 82 1029.0
20260507141336 55 0 1.0 3.0 0.00 0.00 0.00 83 1028.8
20260507140836 55 342 1.0 3.0 0.00 0.00 0.00 83 1028.9
20260507140336 54 339 1.0 3.0 0.00 0.00 0.00 83 1028.7
20260507135838 54 17 1.0 3.0 0.00 0.00 0.00 83 1028.8
20260507135336 54 0 0.0 3.0 0.00 0.00 0.00 83 1028.8
20260507134837 54 328 0.0 2.0 0.00 0.00 0.00 83 1028.7
20260507134338 54 331 0.0 2.0 0.00 0.00 0.00 83 1028.8
20260507133836 54 331 0.0 2.0 0.00 0.00 0.00 84 1028.8
20260507133336 54 331 0.0 3.0 0.00 0.00 0.00 83 1028.7
20260507132834 54 319 0.0 3.0 0.00 0.00 0.00 83 1028.7
20260507132335 54 314 0.0 2.0 0.00 0.00 0.00 83 1028.8
20260507131834 54 34 0.0 2.0 0.00 0.00 0.00 83 1028.7
20260507131335 54 34 1.0 3.0 0.00 0.00 0.00 83 1028.9
20260507130833 54 35 1.0 3.0 0.00 0.00 0.00 83 1028.9
20260507130330 55 348 1.0 3.0 0.00 0.00 0.00 83 1028.9
20260507125830 54 14 1.0 4.0 0.00 0.00 0.00 82 1029.0
20260507125330 55 17 1.0 4.0 0.00 0.00 0.00 81 1028.8
20260507124828 54 39 1.0 4.0 0.00 0.00 0.00 81 1028.9
20260507124328 55 66 1.0 4.0 0.00 0.00 0.00 81 1028.9
20260507123825 55 0 1.0 4.0 0.00 0.00 0.00 81 1029.0
20260507123324 55 28 1.0 4.0 0.00 0.00 0.00 81 1028.8
20260507122822 55 74 0.0 4.0 0.00 0.00 0.00 82 1029.0
20260507122322 55 37 1.0 4.0 0.00 0.00 0.00 81 1028.9
20260507121823 55 20 1.0 4.0 0.00 0.00 0.00 81 1028.9
20260507121322 55 17 1.0 3.0 0.00 0.00 0.00 81 1029.0
20260507120818 55 34 1.0 4.0 0.00 0.00 0.00 82 1028.9
20260507120315 55 16 1.0 5.0 0.00 0.00 0.00 81 1029.0
20260507115812 55 0 2.0 5.0 0.00 0.00 0.00 81 1029.1
20260507115310 55 33 2.0 4.0 0.00 0.00 0.00 82 1029.1
20260507114810 55 346 1.0 4.0 0.00 0.00 0.00 83 1029.2
20260507114304 54 27 1.0 4.0 0.00 0.00 0.00 85 1029.1
20260507113804 54 61 0.0 3.0 0.00 0.00 0.00 86 1029.3
20260507113304 54 341 1.0 3.0 0.00 0.00 0.00 87 1029.2
20260507112804 54 347 1.0 3.0 0.00 0.00 0.00 87 1029.4
20260507112307 54 277 1.0 3.0 0.00 0.00 0.00 87 1029.3
20260507111805 54 279 1.0 3.0 0.00 0.00 0.00 87 1029.4
20260507111259 54 288 0.0 3.0 0.00 0.00 0.00 87 1029.3
20260507110758 54 293 0.0 2.0 0.00 0.00 0.00 87 1029.5
20260507110259 54 293 1.0 2.0 0.00 0.00 0.00 87 1029.4
20260507105802 54 301 1.0 3.0 0.00 0.00 0.00 87 1029.4
20260507105258 54 300 1.0 4.0 0.00 0.00 0.00 87 1029.4
20260507104757 54 299 1.0 4.0 0.00 0.00 0.00 87 1029.5
20260507104252 54 303 0.0 3.0 0.00 0.00 0.00 87 1029.5
20260507103752 54 355 1.0 3.0 0.00 0.00 0.00 87 1029.6
20260507103252 54 284 1.0 3.0 0.00 0.00 0.00 87 1029.7